North Clarendon, VT

11:51 PM EST on February 07, 2016 (GMT -0500)
Rutland State

Weather History for KRUT - August, 2014

Change the Weather History Date:

Wednesday, August 13, 2014

  Actual Average Record
Temperature  
Mean Temperature 65 °F -  
Max Temperature 70 °F - 91 °F (1988)
Min Temperature 59 °F - 42 °F (1950)
Degree Days  
Heating Degree Days 0    
Month to date heating degree days 5  
Since 1 June heating degree days 88  
Since 1 July heating degree days 19  
Cooling Degree Days 0    
Month to date cooling degree days 35  
Year to date cooling degree days 209  
Since 1 June cooling degree days 202  
Growing Degree Days 14 (Base 50)    
Moisture  
Dew Point 61 °F    
Average Humidity 85    
Maximum Humidity 100    
Minimum Humidity 70    
Precipitation  
Precipitation 0.33 in - 1.62 in (1997)
Month to date precipitation 0.54  
Year to date precipitation 19.74  
Sea Level Pressure  
Sea Level Pressure 29.79 in    
Wind  
Wind Speed 10 mph (SSE)    
Max Wind Speed 17 mph    
Max Gust Speed 27 mph    
Visibility 9 miles    
Events      
T = Trace of Precipitation, MM = Missing Value Source: NWS Daily Summary

Daily Weather History Graph

Daily Weather History Graph

Search for Another Location

Airport or City:

Trip Planner

Search our weather history database for the weather conditions in past years. The results will help you decide how hot, cold, wet, or windy it might be!

Date:

Astronomy

Aug. 13, 2014 Rise Set
Actual Time 5:54 AM EDT 7:58 PM EDT
Civil Twilight 5:23 AM EDT 8:29 PM EDT
Nautical Twilight 4:44 AM EDT 9:07 PM EDT
Astronomical Twilight 4:02 AM EDT 9:49 PM EDT
Moon 9:32 PM EDT (8/13) 9:27 AM EDT (8/13)
Length of Visible Light 15h 06m
Length of Day
14h 03m
Waning Gibbous, 88% of the Moon is Illuminated
Aug 13
Waning Gibbous
Aug 17
Last Quarter
Aug 25
New
Sep 2
First Quarter
Sep 8
Full

Hourly Weather History & Observations

Time (EDT) Temp. Dew Point Humidity Pressure Visibility Wind Dir Wind Speed Gust Speed Precip Events Conditions
12:15 AM 69.8 °F 59.0 °F 68% 29.95 in 10.0 mi SSE 15.0 mph - N/A   Overcast
12:55 AM 69.8 °F 59.0 °F 68% 29.93 in 10.0 mi SSE 16.1 mph 24.2 mph N/A   Overcast
1:15 AM 69.8 °F 59.0 °F 68% 29.93 in 10.0 mi SE 23.0 mph 32.2 mph N/A   Overcast
1:35 AM 69.8 °F 59.0 °F 68% 29.92 in 10.0 mi SE 15.0 mph 21.9 mph N/A   Overcast
1:55 AM 69.8 °F 60.8 °F 73% 29.91 in 10.0 mi SSE 12.7 mph 20.7 mph N/A   Overcast
2:15 AM 69.8 °F 60.8 °F 73% 29.91 in 10.0 mi SSE 5.8 mph 20.7 mph N/A   Overcast
2:35 AM 69.8 °F 60.8 °F 73% 29.90 in 10.0 mi SE 8.1 mph 17.3 mph N/A   Overcast
2:55 AM 69.8 °F 60.8 °F 73% 29.89 in 10.0 mi SSE 17.3 mph 24.2 mph N/A   Overcast
3:15 AM 68.0 °F 60.8 °F 78% 29.88 in 10.0 mi SSE 15.0 mph 21.9 mph N/A   Overcast
3:35 AM 69.8 °F 60.8 °F 73% 29.88 in 10.0 mi SSE 15.0 mph - N/A   Overcast
3:55 AM 69.8 °F 62.6 °F 78% 29.87 in 10.0 mi SE 15.0 mph 23.0 mph N/A   Overcast
4:15 AM 68.0 °F 60.8 °F 78% 29.86 in 10.0 mi SSE 12.7 mph 23.0 mph N/A   Overcast
4:35 AM 68.0 °F 60.8 °F 78% 29.85 in 10.0 mi SSE 12.7 mph 19.6 mph N/A   Overcast
4:55 AM 68.0 °F 60.8 °F 78% 29.83 in 10.0 mi SSE 15.0 mph 26.5 mph N/A   Overcast
5:15 AM 69.8 °F 59.0 °F 68% 29.85 in 10.0 mi SSE 15.0 mph 21.9 mph N/A   Overcast
5:35 AM 68.0 °F 60.8 °F 78% 29.85 in 10.0 mi SSE 15.0 mph 20.7 mph N/A   Overcast
5:55 AM 69.8 °F 60.8 °F 73% 29.84 in 10.0 mi SSE 12.7 mph 21.9 mph N/A   Overcast
6:15 AM 69.8 °F 60.8 °F 73% 29.83 in 10.0 mi SE 12.7 mph 21.9 mph N/A   Overcast
6:35 AM 69.8 °F 60.8 °F 73% 29.83 in 10.0 mi SSE 17.3 mph 25.3 mph N/A   Overcast
6:55 AM 69.8 °F 60.8 °F 73% 29.83 in 10.0 mi SSE 15.0 mph 24.2 mph N/A   Overcast
7:15 AM 68.0 °F 60.8 °F 78% 29.83 in 10.0 mi SSE 10.4 mph 19.6 mph N/A   Overcast
7:35 AM 68.0 °F 60.8 °F 78% 29.84 in 10.0 mi SSE 10.4 mph 17.3 mph N/A   Overcast
9:35 AM 66.2 °F 62.6 °F 88% 29.82 in 10.0 mi SE 12.7 mph 18.4 mph 0.02 in   Overcast
10:15 AM 66.2 °F 62.6 °F 88% 29.81 in 10.0 mi SE 10.4 mph 17.3 mph N/A   Overcast
10:35 AM 66.2 °F 62.6 °F 88% 29.80 in 10.0 mi South 10.4 mph - N/A   Mostly Cloudy
11:15 AM 66.2 °F 62.6 °F 88% 29.80 in 10.0 mi SE 11.5 mph - N/A   Overcast
11:35 AM 66.2 °F 62.6 °F 88% 29.80 in 10.0 mi South 9.2 mph 16.1 mph N/A   Overcast
11:55 AM 64.4 °F 62.6 °F 94% 29.78 in 10.0 mi SE 12.7 mph 20.7 mph 0.01 in   Overcast
12:15 PM 64.4 °F 62.6 °F 94% 29.78 in 10.0 mi SE 10.4 mph - 0.02 in   Mostly Cloudy
12:35 PM 64.4 °F 60.8 °F 88% 29.77 in 10.0 mi SE 13.8 mph 21.9 mph 0.05 in   Overcast
12:55 PM 64.4 °F 60.8 °F 88% 29.76 in 10.0 mi ESE 17.3 mph 25.3 mph 0.08 in   Overcast
1:15 PM 64.4 °F 60.8 °F 88% 29.76 in 9.0 mi SSE 8.1 mph - 0.05 in   Overcast
1:35 PM 64.4 °F 60.8 °F 88% 29.75 in 10.0 mi SSE 11.5 mph 20.7 mph 0.10 in   Overcast
1:55 PM 64.4 °F 60.8 °F 88% 29.74 in 10.0 mi SSE 17.3 mph 23.0 mph 0.10 in   Overcast
2:15 PM 64.4 °F 60.8 °F 88% 29.72 in 9.0 mi SE 10.4 mph 17.3 mph 0.01 in   Mostly Cloudy
2:35 PM 64.4 °F 60.8 °F 88% 29.73 in 10.0 mi SE 15.0 mph 21.9 mph 0.01 in   Overcast
2:55 PM 64.4 °F 60.8 °F 88% 29.71 in 10.0 mi SE 13.8 mph 23.0 mph 0.02 in   Overcast
3:15 PM 64.4 °F 60.8 °F 88% 29.70 in 10.0 mi ESE 15.0 mph 24.2 mph 0.02 in   Overcast
3:35 PM 64.4 °F 60.8 °F 88% 29.70 in 10.0 mi SE 11.5 mph 18.4 mph 0.03 in   Overcast
3:55 PM 64.4 °F 60.8 °F 88% 29.70 in 10.0 mi SE 5.8 mph 19.6 mph 0.03 in   Overcast
4:15 PM 64.4 °F 60.8 °F 88% 29.70 in 10.0 mi Calm Calm - N/A   Overcast
4:35 PM 64.4 °F 59.0 °F 83% 29.68 in 10.0 mi SE 4.6 mph 16.1 mph N/A   Overcast
4:55 PM 64.4 °F 60.8 °F 88% 29.70 in 5.0 mi WSW 4.6 mph - N/A   Overcast
5:15 PM 64.4 °F 59.0 °F 83% 29.70 in 10.0 mi South 3.5 mph - N/A   Mostly Cloudy
5:35 PM 64.4 °F 60.8 °F 88% 29.71 in 10.0 mi WSW 4.6 mph - N/A   Overcast
5:55 PM 64.4 °F 60.8 °F 88% 29.71 in 9.0 mi SE 4.6 mph - 0.03 in   Overcast
6:15 PM 62.6 °F 60.8 °F 94% 29.72 in 8.0 mi Calm Calm - N/A   Overcast
6:35 PM 62.6 °F 59.0 °F 88% 29.72 in 4.0 mi South 3.5 mph - 0.01 in   Overcast
6:55 PM 62.6 °F 60.8 °F 94% 29.72 in 3.0 mi Calm Calm - 0.02 in   Overcast
7:15 PM 60.8 °F 60.8 °F 100% 29.72 in 9.0 mi Calm Calm - N/A   Overcast
7:35 PM 62.6 °F 60.8 °F 94% 29.72 in 10.0 mi East 4.6 mph - N/A   Overcast
7:55 PM 62.6 °F 60.8 °F 94% 29.72 in 10.0 mi WNW 4.6 mph - N/A   Overcast
8:15 PM 60.8 °F 60.8 °F 100% 29.72 in 10.0 mi North 3.5 mph - N/A   Overcast
8:55 PM 60.8 °F 60.8 °F 100% 29.74 in 3.0 mi NNW 8.1 mph - 0.01 in   Overcast
9:35 PM 60.8 °F 60.8 °F 100% 29.73 in 10.0 mi Calm Calm - 0.01 in   Overcast
9:55 PM 60.8 °F 60.8 °F 100% 29.72 in 9.0 mi West 3.5 mph - 0.01 in   Mostly Cloudy